User: anonymous   Login
Location: Unspecified
(0.0000°N, 0.0000°E)
Time: 04:57:13
(UTC+00:00)
Language:

USA 200 - Orbit

View from above orbital plane
View from above orbital plane
View from above satellite
View from above satellite

Ground track
Ground track

The orbit data is extracted from the following two-line orbital elements,

1 32706U 08010A   17239.59833556 0.00000000  00000-0  00000-0 0    06
2 32706  63.5350 336.5603 7130778 271.2034  15.4618  2.00625000    00
Epoch (UTC): 27 August 2017 14:21:36
Eccentricity: 0.7130778
inclination: 63.5350°
perigee height: 1241 km
apogee height: 39112 km
right ascension of ascending node: 336.5603°
argument of perigee: 271.2034°
revolutions per day: 2.00625000
mean anomaly at epoch: 15.4618°
orbit number at epoch: 0

The dashed part of the orbit path shows where the satellite is in the earth's shadow,  

DLR